Location: Beadle
(51.4667°N, 109.0000°W)
Time: 23:05:16
(UTC+00:00)

DIWATA 2B (PO-101) - Pass Details

Date: 06 July 2022
Orbit: 583 x 599 km, 98.0° (Epoch: 07 August)

Event Time Altitude Azimuth Distance (km) Brightness Sun altitude
Exits shadow 08:47:49 12° 156° (SSE) 1,814 ? -13.4°
Maximum altitude 08:51:43 73° 73° (ENE) 633 ? -13.2°
Drops below altitude 10° 08:55:56 10° 349° (N) 1,951 ? -13.0°
Sets 08:58:07 0° 348° (NNW) 2,857 ? -12.8°
